Theta_e
304 304 304 303 304 305 306 306 307 314 315 314 313 312 315 316 314 317 320 318 316 323 327 329 327 331 333 337 338 339 336 335 334 335 340 346 344 346 348 353 354 351 346 350 348
303 304 304 304 304 305 305 306 307 314 316 315 313 311 313 316 322 320 319 315 315 324 330 330 330 332 336 334 334 335 335 333 333 334 335 345 342 345 348 354 354 350 348 349 348
303 303 304 304 304 305 305 306 307 315 315 314 312 311 314 315 325 323 323 315 314 323 324 326 331 333 334 332 332 333 334 333 331 330 334 342 344 344 346 348 353 351 352 350 350
303 303 304 304 305 305 305 306 307 315 314 313 312 312 315 324 328 334 325 314 316 324 321 324 330 334 333 332 331 334 332 332 331 329 332 341 343 345 347 348 350 348 349 349 350
303 304 304 304 305 305 305 307 308 316 314 313 313 314 318 325 326 332 324 315 322 320 322 324 330 333 332 331 332 333 332 332 330 328 332 341 342 346 352 351 349 348 348 349 348
303 304 304 304 305 305 306 307 311 316 314 314 314 315 327 327 333 326 322 322 321 321 322 326 332 332 331 331 332 332 333 332 329 334 338 340 346 346 354 351 351 349 349 348 347
303 303 304 304 305 305 306 308 320 317 314 315 315 322 326 328 330 322 318 319 321 322 323 330 330 331 331 332 330 333 334 332 330 333 338 340 344 350 353 352 354 352 350 348 347
303 303 304 305 305 305 306 315 317 315 315 316 317 326 326 326 329 320 321 321 321 321 322 327 329 331 332 331 332 334 334 333 330 332 337 338 343 351 353 353 355 354 352 351 350
303 303 304 305 305 306 307 317 315 315 315 317 329 329 329 326 326 322 322 323 322 322 325 325 329 331 330 333 333 333 333 332 330 331 334 337 340 352 353 353 355 356 355 354 354
303 304 304 304 305 306 310 318 316 318 320 325 326 331 331 332 328 323 322 322 321 324 327 329 330 331 332 333 332 332 332 331 331 331 332 333 335 351 353 354 354 354 355 355 355
303 304 304 304 305 306 318 325 329 330 329 329 323 327 331 330 325 323 322 323 323 327 328 330 329 331 332 332 333 332 332 332 332 331 331 332 333 348 351 352 354 353 355 353 354
303 304 304 305 305 312 319 327 325 321 328 328 327 325 326 329 328 327 326 328 328 328 329 329 328 329 330 330 332 332 333 333 331 330 331 332 334 342 349 349 351 351 352 351 354
303 303 304 305 306 316 313 316 320 318 329 328 326 326 328 328 329 329 329 329 328 329 329 329 330 331 331 331 332 333 333 333 333 332 332 336 336 346 348 349 349 348 348 348 350
303 303 303 305 312 311 315 321 315 317 330 329 327 328 327 329 328 329 329 328 329 330 329 331 330 329 330 331 332 333 331 331 332 334 334 335 335 338 341 350 350 351 350 347 349
303 303 303 304 309 314 318 313 318 322 330 327 327 326 329 329 329 328 329 329 330 331 331 332 330 329 331 331 331 332 330 331 331 332 333 336 334 339 339 343 346 350 350 347 347
303 303 303 311 311 311 311 312 322 330 329 328 326 327 329 329 328 328 329 330 330 330 331 330 328 329 331 330 330 331 332 333 332 332 333 333 335 333 336 340 338 342 350 348 349
302 304 304 308 313 310 312 323 331 332 328 329 327 327 329 329 328 328 329 330 330 331 331 330 329 329 330 330 330 331 332 334 334 333 333 334 331 331 333 335 338 338 348 350 351
303 304 308 307 311 311 312 329 332 328 328 327 327 327 329 330 328 328 330 331 330 330 331 331 330 329 330 331 331 331 331 333 336 334 335 335 332 335 337 335 339 339 344 351 353
303 309 310 313 311 311 316 330 331 330 328 328 327 328 329 330 329 328 329 330 330 329 331 331 330 329 330 331 331 332 332 332 334 333 332 333 333 332 335 339 342 339 345 352 354
307 309 311 313 314 314 318 324 329 328 328 326 329 329 329 330 329 329 329 329 329 329 329 330 332 329 329 330 330 332 332 332 333 336 336 334 335 332 333 335 344 344 347 351 354
309 312 315 314 312 317 318 321 325 326 327 326 328 330 330 329 329 330 330 328 329 329 329 329 330 332 330 331 331 331 332 332 333 334 334 334 334 333 333 334 339 344 346 350 354
312 315 314 313 317 315 316 319 320 323 324 326 324 327 329 330 330 329 330 329 327 328 328 329 329 334 330 331 331 332 332 333 333 338 334 335 333 333 334 335 339 338 345 347 350
314 314 317 316 319 317 317 318 321 321 322 324 325 325 328 329 331 329 329 328 326 328 329 329 329 332 333 332 331 332 332 333 333 336 336 337 335 336 336 337 339 342 345 348 350
314 320 321 319 321 324 317 319 318 319 320 321 323 326 328 328 330 331 329 329 327 327 329 332 329 331 332 332 331 333 332 333 333 335 335 336 336 337 335 336 337 341 343 347 349
316 320 320 324 321 323 324 321 319 319 321 322 321 322 327 330 329 331 330 331 330 333 328 330 333 333 331 330 330 330 332 332 333 333 334 333 334 335 334 332 332 334 341 345 348
314 318 319 321 323 324 320 324 323 320 324 322 323 322 322 330 331 331 332 333 333 331 332 332 338 337 332 331 329 329 329 330 333 332 333 334 334 333 332 331 332 333 336 343 347
308 310 314 318 322 323 323 324 324 325 325 327 327 328 326 326 330 330 331 333 334 335 336 335 339 340 335 333 332 333 332 332 333 333 333 334 333 333 330 331 332 333 334 335 338
Wind_Speed
21 21 22 23 22 21 21 20 21 15 12 10 8 7 6 4 6 4 9 4 10 13 11 9 7 8 7 4 4 4 3 7 8 7 8 9 9 6 8 11 8 4 13 25 27
22 22 22 24 23 22 22 21 21 15 11 9 8 6 5 4 6 13 9 10 11 16 13 11 8 9 5 2 2 6 6 7 5 5 6 8 5 9 8 11 11 14 21 28 27
24 23 23 25 25 24 23 23 21 13 7 7 8 5 4 3 7 3 6 14 14 17 9 6 6 8 5 3 1 1 9 4 4 5 1 10 6 5 8 6 12 20 23 24 24
26 25 24 26 26 26 24 24 20 9 6 7 6 3 5 3 1 4 3 16 17 14 11 9 7 9 5 3 1 5 6 5 4 4 4 9 11 6 8 7 14 21 23 24 20
26 26 26 26 27 26 27 23 19 8 6 6 3 6 4 7 0 5 7 17 19 14 13 10 9 5 6 4 3 1 6 4 2 3 4 10 9 11 11 15 19 22 21 19 18
27 27 27 27 27 27 27 24 15 6 5 4 4 8 4 6 3 3 16 18 14 14 12 9 3 2 3 3 2 3 4 1 2 6 7 11 11 8 11 16 18 19 18 17 17
27 27 28 28 28 28 26 23 13 4 3 2 8 3 6 4 3 10 15 13 13 9 10 6 3 7 2 6 1 3 6 6 7 9 10 8 10 9 15 16 18 16 16 15 15
28 28 29 28 28 28 26 15 5 2 3 5 3 2 0 1 8 13 10 10 10 6 7 5 3 2 4 2 5 7 6 7 8 10 6 13 13 13 15 16 16 15 14 14 14
28 29 30 28 29 28 22 5 2 2 3 1 1 5 5 8 10 15 12 11 11 8 6 3 5 3 6 9 8 7 7 7 9 9 8 13 17 14 16 14 14 14 13 13 14
30 30 30 29 29 27 13 2 2 2 1 2 5 5 7 6 11 14 10 13 12 12 9 8 7 9 8 9 9 9 6 7 10 12 11 13 8 14 16 15 14 14 13 13 14
30 32 31 29 30 24 1 2 5 5 7 7 2 3 9 11 15 13 14 14 14 14 12 11 10 13 15 12 4 2 4 6 10 6 11 10 7 13 14 15 14 14 13 13 12
32 32 33 27 30 9 2 5 4 5 8 12 12 7 5 12 11 14 17 12 14 15 10 7 13 9 2 7 8 6 7 8 5 7 12 12 9 9 13 14 15 15 14 14 13
32 32 35 29 19 1 7 8 1 6 6 7 9 11 13 13 16 19 18 9 15 15 16 13 5 10 10 10 11 10 10 10 6 9 8 5 12 11 12 12 12 14 15 14 14
33 33 35 33 3 7 5 3 6 4 5 11 10 9 10 12 10 22 22 12 8 15 12 9 11 8 9 12 12 14 4 5 9 13 11 12 10 15 15 15 15 17 15 16 15
33 35 34 21 14 5 2 5 4 5 5 12 9 10 19 16 16 15 23 11 13 10 10 9 13 12 12 13 12 9 7 5 5 9 4 11 9 6 11 15 17 18 19 17 16
35 35 34 7 7 11 10 9 5 7 10 9 9 15 21 20 10 16 17 12 4 9 13 4 2 6 10 5 9 11 10 7 6 8 10 9 9 11 10 14 17 18 18 19 16
39 33 23 9 3 3 4 5 7 10 4 9 11 20 24 17 15 18 22 20 12 15 13 14 12 6 9 12 9 14 13 8 7 8 3 6 6 11 5 3 6 11 16 19 17
41 29 12 12 5 8 6 9 12 8 13 1 6 18 23 21 17 18 21 19 21 17 14 14 16 14 13 14 12 17 11 7 4 6 6 6 5 2 2 7 9 9 12 18 18
34 10 7 4 10 7 8 14 11 13 5 6 9 17 22 17 14 16 19 21 22 17 11 15 11 13 10 7 8 10 8 5 5 1 7 5 4 11 2 4 6 6 13 19 19
20 9 7 5 6 11 11 19 15 7 4 7 13 16 21 23 16 19 18 22 22 22 17 8 13 14 7 8 3 8 7 7 8 4 6 7 4 2 1 4 2 3 10 15 17
8 5 4 7 13 8 14 21 22 10 8 7 10 10 16 20 23 22 17 9 23 21 20 9 10 11 10 13 15 7 11 9 5 4 6 4 3 6 2 2 1 3 9 14 18
6 4 5 7 8 10 15 18 6 13 12 9 6 9 12 16 22 20 23 20 15 20 23 21 11 9 17 5 5 9 13 15 10 12 7 7 8 6 2 2 4 5 8 12 17
6 5 4 7 7 11 12 20 14 13 13 12 9 7 7 12 15 21 19 10 11 18 19 16 11 13 8 7 5 10 11 11 13 7 11 9 5 6 4 4 6 7 7 10 15
4 3 5 7 6 9 18 17 19 14 13 10 8 7 8 9 10 14 19 8 12 15 6 12 15 17 14 17 16 17 15 16 16 13 13 13 16 9 5 3 3 6 8 8 13
4 0 4 4 11 11 5 5 17 15 13 9 13 16 13 10 14 12 17 10 10 7 9 11 12 16 20 11 13 15 18 19 20 19 18 15 12 4 5 1 2 4 6 11 15
4 4 2 7 4 9 9 12 12 16 7 12 12 12 19 14 14 13 14 15 11 11 12 9 8 9 13 9 13 16 19 17 20 20 13 14 13 4 2 1 4 6 7 11 15
3 4 5 2 6 7 15 15 12 2 9 2 5 7 12 12 3 5 3 5 8 14 13 12 8 8 14 8 7 11 15 17 18 12 15 13 10 5 5 5 7 9 10 11 13
Wind_Direction
3 360 357 353 351 349 347 346 341 328 314 301 295 287 265 263 281 266 242 221 190 173 150 161 190 208 220 233 263 279 181 82 69 53 107 138 123 87 93 121 62 82 134 138 147
0 358 355 352 350 346 343 342 340 329 308 293 294 286 255 241 251 250 241 207 180 167 164 178 182 193 211 217 210 265 81 47 31 33 66 144 145 131 142 118 99 106 114 138 150
360 356 354 352 349 346 342 340 340 331 310 296 297 278 214 201 252 173 219 192 172 168 184 194 186 226 203 229 85 321 62 55 67 40 193 147 139 131 121 130 142 141 140 148 154
359 357 353 351 349 345 342 338 337 328 318 317 305 244 172 225 235 97 143 171 173 173 182 188 209 205 193 164 80 168 72 46 33 76 152 150 118 120 58 53 118 141 147 152 160
356 355 353 350 348 344 341 336 333 315 313 326 291 166 156 215 298 325 180 166 165 177 189 191 203 197 174 129 150 109 55 29 11 109 153 128 142 112 74 98 124 140 151 157 161
356 354 352 349 347 344 340 334 329 305 311 329 180 160 239 224 19 123 150 154 171 179 176 199 198 266 142 119 300 15 334 358 140 120 140 140 134 145 110 125 132 149 156 161 163
355 353 351 348 346 342 339 333 323 287 325 99 148 161 246 49 129 143 150 174 173 188 174 164 170 240 171 146 52 273 256 146 154 161 145 136 154 94 139 142 144 153 158 162 170
355 352 349 346 343 341 338 335 5 87 113 116 139 232 263 155 155 159 160 152 177 174 193 167 232 248 260 125 191 240 253 202 146 176 144 234 113 140 155 154 150 150 159 165 173
351 351 347 343 341 338 336 328 56 90 154 128 258 254 144 134 169 173 174 172 166 163 152 177 229 232 187 215 208 201 206 214 157 206 153 229 115 150 165 159 154 158 161 171 171
349 347 345 341 338 335 331 236 172 102 226 259 257 236 174 186 151 162 172 166 166 160 160 202 212 211 209 218 222 169 185 195 187 189 213 200 122 155 170 162 162 167 170 173 178
348 345 343 340 336 330 157 265 216 188 214 263 114 324 137 125 140 170 159 173 164 184 187 200 215 213 217 218 18 100 245 237 204 161 220 220 194 159 177 173 167 167 178 179 184
346 343 342 338 334 327 166 263 37 351 288 220 241 252 201 173 156 159 169 174 181 191 191 186 226 208 172 183 207 213 222 189 167 191 223 217 232 157 182 192 177 175 176 182 174
344 344 340 337 334 272 288 263 253 336 258 177 200 210 184 195 176 172 191 190 193 192 199 219 129 145 186 183 202 207 225 154 177 177 212 226 215 201 199 201 197 185 179 184 184
342 342 340 337 327 324 266 175 298 262 265 168 197 198 184 196 204 173 197 186 196 205 195 222 154 185 199 206 213 171 169 173 166 194 208 208 244 192 198 201 202 199 188 187 187
339 338 334 336 296 265 352 321 302 209 253 130 145 140 167 188 138 186 192 201 195 183 206 167 191 202 208 196 198 103 161 179 188 215 238 187 252 109 190 216 212 205 199 196 186
335 332 330 330 256 256 289 304 209 228 234 168 157 177 176 205 186 147 180 221 248 201 224 171 144 222 204 141 201 140 152 161 204 232 222 241 230 255 191 227 237 208 205 199 182
330 325 311 260 273 306 300 217 214 235 122 174 183 178 188 183 172 176 183 193 193 190 195 202 201 163 179 145 157 195 194 207 215 201 219 91 249 259 358 303 287 285 194 204 184
328 322 296 238 238 256 255 216 227 223 224 41 198 188 198 182 187 188 185 195 215 211 186 197 185 186 185 206 182 208 233 271 208 222 142 158 242 119 54 299 284 255 228 197 189
331 317 266 255 218 217 214 214 216 235 262 221 189 193 200 189 194 192 203 203 198 207 223 202 209 151 192 176 219 169 227 309 278 232 263 145 169 242 194 269 320 238 206 193 188
324 300 244 200 188 193 212 228 227 235 232 221 217 202 198 193 201 195 192 209 201 197 235 198 214 182 147 169 154 270 157 206 228 242 256 144 249 45 162 27 17 202 208 199 189
300 283 38 181 169 200 215 223 234 222 235 224 235 221 228 201 204 196 192 183 204 198 211 185 234 154 170 207 207 177 213 235 295 297 293 235 145 123 177 349 348 206 202 201 198
298 251 127 150 199 209 217 222 249 249 216 237 260 263 228 209 203 207 210 210 196 201 203 217 212 195 207 112 287 235 232 204 224 192 237 301 288 108 160 278 249 238 201 208 203
297 281 172 215 224 205 217 223 229 231 221 223 227 231 212 220 216 209 208 148 180 183 193 181 219 208 188 180 187 221 211 233 243 277 267 263 265 130 147 227 240 248 223 209 204
283 261 176 202 275 283 206 218 217 220 251 239 259 237 208 210 208 209 208 161 187 198 44 194 214 227 213 214 209 205 224 221 230 242 249 223 264 180 152 242 240 242 239 222 208
231 344 349 202 215 242 264 241 216 209 222 219 234 240 224 220 195 204 194 154 174 142 188 204 222 222 241 270 271 223 226 220 229 240 256 265 282 270 183 198 331 288 228 217 207
300 327 332 286 260 234 211 217 227 217 222 212 236 231 228 239 213 185 188 189 173 179 181 207 216 209 229 240 243 243 244 239 229 247 250 251 252 87 225 279 279 273 251 230 222
354 262 278 202 221 229 223 231 218 163 190 291 259 250 231 224 352 312 26 206 156 175 182 178 168 197 228 192 217 234 229 228 228 228 234 225 252 155 220 255 282 289 285 267 246